User: anonymous   Login
Location: Unspecified
(0.0000°N, 0.0000°E)
Time: 03:32:55
(UTC+00:00)
Language:

CP3 - Orbit

View from above orbital plane
View from above orbital plane
View from above satellite
View from above satellite

Ground track
Ground track

The orbit data is extracted from the following two-line orbital elements,

1 31129U 07012N   17173.83501953 +.00000114 +00000-0 +34423-4 0  9995
2 31129 098.0795 123.4650 0095456 178.8068 181.3377 14.56513697540291
Epoch (UTC): 22 June 2017 20:02:25
Eccentricity: 0.0095456
inclination: 98.0795°
perigee height: 637 km
apogee height: 772 km
right ascension of ascending node: 123.4650°
argument of perigee: 178.8068°
revolutions per day: 14.56513697
mean anomaly at epoch: 181.3377°
orbit number at epoch: 54029

The dashed part of the orbit path shows where the satellite is in the earth's shadow,  

DLR